Regional Weather Roundup
Issued by NWS Cleveland, OH

Home | Current Version | Previous Version | Text Only | Print | Product List | Glossary On
Versions: 1 2 3 4 5 6 7 8 9 10 11 12 13 14 15 16 17 18 19 20 21 22 23 24 25 26 27 28 29 30 31 32 33 34 35 36 37 38 39 40 41 42 43 44 45 46 47 48 49 50
000
ASUS41 KCLE 281812
RWRCLE
OHIO REGIONAL WEATHER ROUNDUP
NATIONAL WEATHER SERVICE WILMINGTON, OH
100 PM EST TUE FEB 28 2017

NOTE: "FAIR" INDICATES FEW OR NO CLOUDS BELOW 12,000 FEET WITH NO
SIGNIFICANT WEATHER AND/OR OBSTRUCTIONS TO VISIBILITY.

OHZ001>008-015>018-024>027-034-035-043-044-281900-
   NORTHWEST OHIO

CITY           SKY/WX    TMP DP  RH WIND       PRES   REMARKS
DEFIANCE       CLOUDY    51  48  89 S12       29.91F
FINDLAY        CLOUDY    53  47  79 S14G22    29.93F
TOLEDO EXPRESS CLOUDY    50  49  96 S10       29.92S
TOLEDO EXEC    CLOUDY    53  49  86 S15G25    29.93F
LIMA           CLOUDY    54  51  90 S21G28    29.93F
$$

OHZ009>014-019>023-028>033-038-089-281900-
   NORTHEAST OHIO

CITY           SKY/WX    TMP DP  RH WIND       PRES   REMARKS
CLE-HOPKINS    PTSUNNY   58  41  53 S14G28    29.99F
CLE-LAKEFRONT  CLOUDY    61  41  47 S18G30    29.95F
CUY CO. ARPT   PTSUNNY   59  32  36 S17G23    29.96F
LORAIN-ELYRIA  PTSUNNY   54  41  61 S20G28    29.97F
ASHTABULA      CLOUDY    58  40  51 S13G25    30.00F
AKRON-CANTON   CLOUDY    56  41  57 S20G28    30.01F
WOOSTER        PTSUNNY   53  44  71 S17G24    30.01F
MANSFIELD      CLOUDY    52  46  80 S17       29.99F
YOUNGSTOWN     CLOUDY    56  38  50 S8        30.03F
$$

OHZ042-051>053-060>062-070>072-077>081-281900-
  SOUTHWEST OHIO

CITY           SKY/WX    TMP DP  RH WIND       PRES   REMARKS
CINC-COVINGTON CLOUDY    52  51  97 SE13      29.99F
CINC-LUNKEN    CLOUDY    53  52  96 S6        30.01F
HAMILTON       CLOUDY    54  53  97 S9        30.00F
DAYTON         CLOUDY    52  50  93 S15G21    29.97F
WRIGHT-PAT AFB CLOUDY    53  53 100 S14       29.98F
DAYTON GENERAL CLOUDY    53  51  93 S14       29.98F
WILMINGTON     FAIR      51  49  92 S20G26    29.99F
$$

OHZ036-037-039>041-045>050-054>059-063>069-073>076-082>088-281900-
  CENTRAL AND SOUTHEAST OHIO

CITY           SKY/WX    TMP DP  RH WIND       PRES   REMARKS
COLUMBUS       LGT RAIN  53  49  86 S16G24    30.03F
OSU AIRPORT    CLOUDY    50  48  93 S13       30.01F
BOLTON FIELD   LGT RAIN  48  48 100 S7        30.04F
RICKENBACK AFB LGT RAIN  47  47 100 S18       30.01F
NEWARK         CLOUDY    51  46  83 S14G23    30.04F
MARION         CLOUDY    52  47  83 S20       29.98F
LANCASTER      RAIN      52  49  89 S16G24    30.03F
ZANESVILLE     CLOUDY    50  46  86 S15G21    30.06F
NEW PHILLY     CLOUDY    55  44  66 S8        30.04F
$$



USA.gov is the U.S. government's official web portal to all federal, state and local government web resources and services.